AEROCUBE 6A

Last updated on Mon Sep 15 2025 00:03:48 GMT+0000 (Coordinated Universal Time)

1 40045U 14033AM 25257.25623082 .00005025 00000+0 47658-3 0 9997 2 40045 97.7020 63.4014 0041690 217.1198 142.7138 14.93348406605365
UTC large
Height (km)
Speed (km/s)
/
Latitude / Longitude
Inclination (degrees)
Orbital Period (minutes)
Azimuth
Elevation
Range (km)
Doppler Factor

Next 0 passes for location: London (51.5072 / 0.1276)

Sorry there are no passes over London.